COSMOS 1855

Satellite information

Favourite Embed

Satellite Type and Status

PAYLOADIN ORBIT

Key statistics

Satellite COSMOS 1855 at a glance.

Uptime

14015

Days in orbit

Revolutions

≈ 12.5

Per day

Orbit

LEO

Low Earth Orbit

Inclination

74.0

Latest

Satellite identification and parameters

Extended collection of information and parameters for COSMOS 1855.

Object identification

Identified? True

Debris? False

Object name: COSMOS 1855

International designator: 1987-051D

Object number (NORAD): 18116

Object ID (CCSDS): 18116

Country: COMMONWEALTH OF INDEPENDENT STATES (CIS)

Current information (Y/N): Y

RCS size: MEDIUM

Orbital parameters

Period: 115.133 minutes

Inclination: 74.0043 deg

SMA: 7839.586 km

Apoapsis: 1477.337 km

Periapsis: 1445.565 km

RAAN: 226.5725 deg

Eccentricy: 0.00202641

Argument of periapsis: 300.6579 deg

Mean anomaly: 233.4018 deg

Mean motion: 12.50728519 rev/day

Mean motion (dot): 0.00000005 rev/day2

B* drag term: 0.00013786781 1/REarth

Two-line elements (TLE)

Creation date: Oct. 28, 2025, 7:11 p.m.

Reference frame: TEME

Reference center: EARTH

Epoch: Oct. 28, 2025, 12:39 p.m. UTC

TLE line 0: 0 COSMOS 1855

TLE line 1: 1 18116U 87051D 25301.52728852 .00000005 00000-0 13787-3 0 9992

TLE line 2: 2 18116 74.0043 226.5725 0020264 300.6579 233.4018 12.50728519751846

Live tracking on map

Real-time ground track for satellite COSMOS 1855.

In-orbit conjunctions

There are no conjunctions computed for COSMOS 1855, at the moment. Check back to stay up to date, as we update our databases every day.

Go to all conjunctions

Associated space launch

Military communications satellites

COSMOS 1855 was lifted into orbit during the mission ‘Kosmos-3M | Strela-1M 321-328’, on board a Kosmos-3M space rocket.

The launch took place on June 16, 1987, 5:51 p.m. from 132/1 (132L).

For more information about the launch, click the button.

Launch to space Kosmos-3M | Strela-1M 321-328
Kosmos-3M | Strela-1M 321-328

Agency: N/A

Status: Launch Successful

Launch date: June 16, 1987, 5:51 p.m. UTC

Rocket: Kosmos-3M

Launch pad: 132/1 (132L)

Location: Plesetsk Cosmodrome, Russian Federation

...

Latest news about this satellite

There are no fresh news available about this satellite. Check back as we update our databases every day.


Newsletter sign-up

Weekly statistics, charts and insights to help you stay on top of the space industry.